Location: Newark
(40.3500°N, 15.2333°E)
Time: 14:34:22
(UTC+00:00)

Altair - Pass Details

Date: 20 January 2020
Orbit: 1502 x 1682 km, 47.2° (Epoch: 22 February)

Event Time Altitude Azimuth Distance (km) Brightness Sun altitude
Rises 11:58:29 0° 280° (W) 4,934 10.2 28.4°
Reaches altitude 10° 12:01:46 10° 284° (WNW) 3,947 9.7 28.3°
Maximum altitude 12:11:47 59° 3° (N) 1,884 8.0 27.8°
Drops below altitude 10° 12:21:36 10° 82° (E) 3,870 9.4 27.2°
Sets 12:24:47 0° 86° (E) 4,833 9.9 27.0°
